Weather History for Bishop, CA

Change the Weather History Date:

Friday, February 1, 2013

  Actual Average Record
Temperature  
Mean Temperature 42 °F 40 °F  
Max Temperature 63 °F 55 °F 73 °F (2003)
Min Temperature 20 °F 24 °F 9 °F (1949)
Degree Days  
Heating Degree Days 23 25  
Month to date heating degree days 23 25  
Since 1 July heating degree days 2565 2594  
Cooling Degree Days 0 0  
Month to date cooling degree days 0 0  
Year to date cooling degree days 0 0  
Moisture  
Dew Point 15 °F    
Average Humidity 41    
Maximum Humidity 68    
Minimum Humidity 14    
Precipitation  
Precipitation 0.00 in 0.03 in 2.36 in (1945)
Month to date precipitation 0.00 0.03  
Year to date precipitation T 1.08  
Snow  
Snow 0.00 in 0.00 in 2.20 in (1998)
Month to date snowfall 0.0 0.0  
Since 1 July snowfall 2.8 5.8  
Snow Depth 0.00 in    
Sea Level Pressure  
Sea Level Pressure 30.25 in    
Wind  
Wind Speed 4 mph (NW)    
Max Wind Speed 9 mph    
Max Gust Speed 10 mph    
Visibility 10 miles    
Events      
T = Trace of Precipitation, MM = Missing Value Source: NWS Daily Summary

Daily Weather History Graph

Daily Weather History Graph

Search for Another Location

Airport:

Trip Planner

Search our weather history database for the weather conditions in past years. The results will help you decide how hot, cold, wet, or windy it might be!

Date:

Astronomy

Feb. 01, 2013 Rise Set
Actual Time 6:56 AM PST 5:18 PM PST
Civil Twilight 6:28 AM PST 5:45 PM PST
Nautical Twilight 5:57 AM PST 6:16 PM PST
Astronomical Twilight 5:27 AM PST 6:47 PM PST
Moon 11:21 PM PST (2/1) 9:41 AM PST (2/1)
Length of Visible Light 11h 16m
Length of Day
10h 21m
Waning Gibbous, 69% of the Moon is Illuminated
Feb 1
Waning Gibbous
Feb 3
Last Quarter
Feb 9
New
Feb 17
First Quarter
Feb 25
Full

Hourly Weather History & Observations

Time (PST) Temp. Windchill Dew Point Humidity Pressure Visibility Wind Dir Wind Speed Gust Speed Precip Events Conditions
12:56 AM 25.0 °F 17.1 °F 14.0 °F 63% 30.23 in 10.0 mi North 6.9 mph - N/A   Unknown
1:56 AM 28.0 °F 20.0 °F 16.0 °F 61% 30.23 in 10.0 mi NNW 8.1 mph - N/A   Clear
2:56 AM 24.1 °F 16.0 °F 14.0 °F 65% 30.24 in 10.0 mi NNW 6.9 mph - N/A   Clear
3:56 AM 24.8 °F 19.1 °F 15.8 °F 69% 30.26 in 10.0 mi NW 4.6 mph - N/A   Clear
4:56 AM 26.1 °F 16.8 °F 16.0 °F 66% 30.24 in 10.0 mi NW 9.2 mph - N/A   Clear
5:56 AM 21.0 °F 12.4 °F 12.9 °F 71% 30.26 in 10.0 mi NW 6.9 mph - N/A   Clear
6:56 AM 21.9 °F 14.5 °F 12.9 °F 68% 30.30 in 10.0 mi NNW 5.8 mph - N/A   Clear
7:56 AM 28.9 °F 25.2 °F 18.0 °F 64% 30.32 in 10.0 mi NNW 3.5 mph - N/A   Clear
8:56 AM 39.9 °F - 19.9 °F 45% 30.32 in 10.0 mi Calm Calm - N/A   Clear
9:56 AM 48.9 °F - 18.0 °F 29% 30.30 in 10.0 mi NNW 4.6 mph - N/A   Clear
10:56 AM 55.0 °F - 18.0 °F 23% 30.28 in 10.0 mi Calm Calm - N/A   Clear
11:56 AM 59.0 °F - 18.0 °F 20% 30.25 in 10.0 mi Calm Calm - N/A   Clear
12:56 PM 60.1 °F - 15.1 °F 17% 30.21 in 10.0 mi Calm Calm - N/A   Clear
1:56 PM 62.1 °F - 14.0 °F 15% 30.18 in 10.0 mi Calm Calm - N/A   Clear
2:56 PM 63.0 °F - 12.9 °F 14% 30.17 in 10.0 mi Calm Calm - N/A   Clear
3:56 PM 62.1 °F - 12.9 °F 15% 30.16 in 10.0 mi South 4.6 mph - N/A   Clear
4:56 PM 55.9 °F - 14.0 °F 19% 30.18 in 10.0 mi SSW 3.5 mph - N/A   Clear
5:56 PM 46.9 °F - 14.0 °F 27% 30.24 in 10.0 mi SE 3.5 mph - N/A   Clear
6:56 PM 39.9 °F - 12.0 °F 32% 30.28 in 10.0 mi Calm Calm - N/A   Clear
7:56 PM 44.1 °F 42.5 °F 16.0 °F 32% 30.29 in 10.0 mi WSW 3.5 mph - N/A   Clear
8:56 PM 37.0 °F 33.3 °F 14.0 °F 39% 30.30 in 10.0 mi North 4.6 mph - N/A   Clear
9:56 PM 36.0 °F 30.3 °F 12.9 °F 39% 30.29 in 10.0 mi WNW 6.9 mph - N/A   Clear
10:56 PM 33.1 °F 26.9 °F 14.0 °F 46% 30.29 in 10.0 mi NNW 6.9 mph - N/A   Clear
11:56 PM 32.0 °F 27.5 °F 12.9 °F 45% 30.29 in 10.0 mi North 4.6 mph - N/A   Clear